Zurück zum Katalog

SL-16 DEB

AktivLEO
NORAD 23709·DEBRIS·🇷🇺 Russia

Gestartet Oct 31, 1995 von Baikonur Cosmodrome

Loading…

Nächste Überflüge (nächste 24 Stunden)

TLE

AktuellSource: Space-Track

Epoche: Sep 14, 2026, 13:21 UTC

1 23709U 95058F   26257.55651718  .00000072  00000-0  10551-3 0  9992
2 23709  71.0362 288.0010 0198318 224.5271 213.2153 13.74801892548012

Verfolge SL-16 DEB in Echtzeit mit AllMySat

Download on the App Store